Weather History for Osceola, WI

Change the Weather History Date:

Friday, September 6, 2013

  Actual Average (KMSP) Record (KMSP)
Temperature  
Mean Temperature 78 °F 66 °F  
Max Temperature 91 °F 76 °F 98 °F (1922)
Min Temperature 65 °F 57 °F 35 °F (1885)
Degree Days  
Heating Degree Days 0 2  
Month to date heating degree days 11  
Since 1 July heating degree days 30  
Cooling Degree Days 13 4  
Month to date cooling degree days 24  
Year to date cooling degree days 705  
Growing Degree Days 28 (Base 50)    
Moisture  
Dew Point 63 °F    
Average Humidity 65    
Maximum Humidity 95    
Minimum Humidity 31    
Precipitation  
Precipitation 0.00 in 0.11 in 1.61 in (1881)
Month to date precipitation 0.66  
Year to date precipitation 22.83  
Snow  
Snow 0.00 in 0.00 in 0.00 in ()
Month to date snowfall 0.0  
Since 1 July snowfall 0.0  
Since 1 September snowfall 0.0  
Snow Depth -    
Sea Level Pressure  
Sea Level Pressure 30.03 in    
Wind  
Wind Speed 6 mph (South)    
Max Wind Speed 17 mph    
Max Gust Speed 24 mph    
Visibility 10 miles    
Events      
T = Trace of Precipitation, MM = Missing Value Source: NWS Daily Summary

Daily Weather History Graph

Daily Weather History Graph

Search for Another Location

Airport:

Trip Planner

Search our weather history database for the weather conditions in past years. The results will help you decide how hot, cold, wet, or windy it might be!

Date:

Astronomy

Sep. 06, 2013 Rise Set
Actual Time 6:38 AM CDT 7:38 PM CDT
Civil Twilight 6:08 AM CDT 8:08 PM CDT
Nautical Twilight 5:32 AM CDT 8:44 PM CDT
Astronomical Twilight 4:54 AM CDT 9:22 PM CDT
Moon 7:57 AM CDT (9/6) 7:55 PM CDT (9/6)
Length of Visible Light 13h 59m
Length of Day
12h 59m
New Moon, 2% of the Moon is Illuminated
Sep 6
New Moon
Sep 12
First Quarter
Sep 19
Full
Sep 26
Last Quarter
Oct 4
New

Hourly Weather History & Observations

Time (CDT) Temp. Heat Index Dew Point Humidity Pressure Visibility Wind Dir Wind Speed Gust Speed Precip Events Conditions
12:15 AM 67.6 °F - 61.3 °F 80% 30.15 in 10.0 mi Calm Calm - N/A   Clear
12:35 AM 67.3 °F - 62.1 °F 83% 30.15 in 10.0 mi East 4.6 mph - N/A   Clear
12:55 AM 67.1 °F - 62.1 °F 84% 30.15 in 10.0 mi SE 5.8 mph - N/A   Clear
1:15 AM 67.3 °F - 62.6 °F 85% 30.15 in 10.0 mi ESE 4.6 mph - N/A   Clear
1:35 AM 67.1 °F - 63.1 °F 87% 30.15 in 10.0 mi SE 4.6 mph - N/A   Clear
1:55 AM 67.3 °F - 63.1 °F 87% 30.15 in 10.0 mi Calm Calm - N/A   Clear
2:15 AM 66.2 °F - 63.5 °F 91% 30.15 in 10.0 mi ESE 5.8 mph - N/A   Clear
2:35 AM 66.4 °F - 63.7 °F 91% 30.14 in 10.0 mi SE 4.6 mph - N/A   Clear
2:55 AM 65.8 °F - 63.7 °F 93% 30.15 in 10.0 mi ESE 4.6 mph - N/A   Clear
3:15 AM 66.2 °F - 63.9 °F 92% 30.14 in 10.0 mi ESE 4.6 mph - N/A   Clear
3:35 AM 66.6 °F - 64.2 °F 92% 30.14 in 10.0 mi Calm Calm - N/A   Clear
3:55 AM 66.6 °F - 64.4 °F 93% 30.14 in 10.0 mi Calm Calm - N/A   Clear
4:15 AM 66.0 °F - 64.0 °F 93% 30.14 in 10.0 mi Calm Calm - N/A   Clear
4:35 AM 66.4 °F - 64.8 °F 95% 30.13 in 10.0 mi SE 4.6 mph - N/A   Clear
4:55 AM 66.6 °F - 64.8 °F 94% 30.13 in 10.0 mi SSE 4.6 mph - N/A   Clear
5:15 AM 66.7 °F - 64.9 °F 94% 30.13 in 10.0 mi South 4.6 mph - N/A   Clear
5:35 AM 66.7 °F - 64.9 °F 94% 30.13 in 10.0 mi SSE 3.5 mph - N/A   Clear
5:55 AM 66.6 °F - 64.9 °F 95% 30.13 in 10.0 mi SSE 4.6 mph - N/A   Clear
6:15 AM 66.2 °F - 64.8 °F 95% 30.12 in 10.0 mi Calm Calm - N/A   Scattered Clouds
6:35 AM 66.2 °F - 64.6 °F 94% 30.12 in 10.0 mi SE 4.6 mph - N/A   Clear
6:55 AM 66.2 °F - 64.8 °F 95% 30.12 in 10.0 mi SSE 5.8 mph - N/A   Clear
7:15 AM 67.1 °F - 65.3 °F 94% 30.11 in 10.0 mi South 3.5 mph - N/A   Clear
7:35 AM 68.0 °F - 65.8 °F 93% 30.10 in 10.0 mi SSE 6.9 mph - N/A   Clear
7:55 AM 68.5 °F - 65.8 °F 91% 30.10 in 10.0 mi South 5.8 mph - N/A   Clear
8:15 AM 68.9 °F - 65.8 °F 90% 30.09 in 10.0 mi SSE 5.8 mph - N/A   Clear
8:35 AM 69.1 °F - 66.0 °F 90% 30.10 in 10.0 mi South 4.6 mph - N/A   Clear
8:55 AM 71.4 °F - 66.2 °F 84% 30.09 in 10.0 mi South 10.4 mph - N/A   Clear
9:15 AM 73.4 °F - 66.0 °F 78% 30.08 in 10.0 mi South 9.2 mph - N/A   Clear
9:35 AM 74.7 °F - 66.2 °F 75% 30.08 in 10.0 mi South 9.2 mph - N/A   Clear
9:55 AM 76.3 °F - 66.2 °F 71% 30.07 in 10.0 mi SSE 12.7 mph - N/A   Clear
10:15 AM 78.8 °F - 66.2 °F 65% 30.07 in 10.0 mi South 10.4 mph 16.1 mph N/A   Scattered Clouds
10:35 AM 79.9 °F - 65.5 °F 61% 30.06 in 10.0 mi SSW 13.8 mph 18.4 mph N/A   Scattered Clouds
10:55 AM 81.0 °F 83.0 °F 66.0 °F 60% 30.06 in 10.0 mi SSW 10.4 mph - N/A   Scattered Clouds
11:15 AM 82.2 °F 84.2 °F 65.7 °F 57% 30.05 in 10.0 mi South 13.8 mph 19.6 mph N/A   Clear
11:35 AM 82.8 °F 84.7 °F 65.7 °F 56% 30.05 in 10.0 mi South 12.7 mph 16.1 mph N/A   Clear
11:55 AM 83.7 °F 85.5 °F 65.3 °F 54% 30.04 in 10.0 mi South 9.2 mph - N/A   Clear
12:15 PM 85.5 °F 87.1 °F 64.9 °F 50% 30.03 in 10.0 mi South 10.4 mph 17.3 mph N/A   Mostly Cloudy
12:35 PM 86.5 °F 86.5 °F 60.6 °F 42% 30.03 in 10.0 mi SSW 15.0 mph 24.2 mph N/A   Scattered Clouds
12:55 PM 86.4 °F 86.1 °F 59.9 °F 41% 30.01 in 10.0 mi SSW 13.8 mph 18.4 mph N/A   Mostly Cloudy
1:15 PM 87.6 °F 87.2 °F 60.1 °F 39% 30.01 in 10.0 mi SSW 13.8 mph 21.9 mph N/A   Scattered Clouds
1:35 PM 88.0 °F 87.6 °F 59.9 °F 39% 29.99 in 10.0 mi SSW 12.7 mph 21.9 mph N/A   Clear
1:55 PM 90.0 °F 89.4 °F 59.7 °F 36% 29.99 in 10.0 mi SSW 13.8 mph 17.3 mph N/A   Clear
2:15 PM 90.1 °F 89.1 °F 58.3 °F 34% 29.98 in 10.0 mi SSW 17.3 mph 20.7 mph N/A   Clear
2:35 PM 90.0 °F 88.8 °F 57.7 °F 34% 29.96 in 10.0 mi SW 15.0 mph 20.7 mph N/A   Clear
2:55 PM 90.1 °F 88.8 °F 57.4 °F 33% 29.96 in 10.0 mi SSW 11.5 mph 20.7 mph N/A   Clear
3:15 PM 91.6 °F 90.4 °F 57.7 °F 32% 29.96 in 10.0 mi South 13.8 mph 18.4 mph N/A   Clear
3:35 PM 90.7 °F 89.0 °F 56.5 °F 31% 29.95 in 10.0 mi South 16.1 mph 19.6 mph N/A   Clear
3:55 PM 90.5 °F 89.0 °F 56.5 °F 32% 29.95 in 10.0 mi SSW 12.7 mph - N/A   Clear
4:15 PM 89.6 °F 88.1 °F 56.7 °F 33% 29.94 in 10.0 mi SSW 15.0 mph - N/A   Scattered Clouds
4:35 PM 90.7 °F 89.5 °F 57.6 °F 33% 29.93 in 10.0 mi SSW 10.4 mph - N/A   Scattered Clouds
4:55 PM 90.0 °F 88.8 °F 58.1 °F 34% 29.93 in 10.0 mi SSW 10.4 mph - N/A   Clear
5:15 PM 90.0 °F 89.4 °F 59.5 °F 36% 29.93 in 10.0 mi South 11.5 mph - N/A   Scattered Clouds
5:35 PM 89.2 °F 89.0 °F 60.6 °F 38% 29.92 in 10.0 mi South 10.4 mph 17.3 mph N/A   Mostly Cloudy
5:55 PM 88.2 °F 87.3 °F 59.0 °F 37% 29.92 in 10.0 mi South 11.5 mph - N/A   Scattered Clouds
6:15 PM 88.7 °F 88.3 °F 59.7 °F 38% 29.92 in 10.0 mi SSW 9.2 mph - N/A   Scattered Clouds
6:35 PM 87.8 °F 87.9 °F 61.2 °F 41% 29.92 in 10.0 mi South 8.1 mph - N/A   Scattered Clouds
6:55 PM 86.9 °F 87.2 °F 61.7 °F 43% 29.92 in 10.0 mi South 9.2 mph - N/A   Scattered Clouds
7:15 PM 85.3 °F 85.7 °F 61.7 °F 45% 29.91 in 10.0 mi South 6.9 mph - N/A   Scattered Clouds
7:35 PM 83.7 °F 84.3 °F 62.2 °F 48% 29.92 in 10.0 mi South 4.6 mph - N/A   Scattered Clouds
7:55 PM 82.2 °F 83.5 °F 63.3 °F 53% 29.92 in 10.0 mi South 4.6 mph - N/A   Scattered Clouds
8:15 PM 79.7 °F - 63.9 °F 58% 29.92 in 10.0 mi SSE 4.6 mph - N/A   Scattered Clouds
8:35 PM 79.7 °F - 64.4 °F 59% 29.92 in 10.0 mi South 5.8 mph - N/A   Clear
8:55 PM 79.3 °F - 64.4 °F 60% 29.92 in 10.0 mi SSE 4.6 mph - N/A   Clear
9:15 PM 77.9 °F - 64.4 °F 63% 29.92 in 10.0 mi SSE 4.6 mph - N/A   Clear
9:35 PM 77.0 °F - 64.4 °F 65% 29.92 in 10.0 mi SSE 4.6 mph - N/A   Clear
9:55 PM 77.0 °F - 64.4 °F 65% 29.92 in 10.0 mi SSE 3.5 mph - N/A   Scattered Clouds
10:15 PM 77.0 °F - 64.8 °F 66% 29.92 in 10.0 mi SSE 4.6 mph - N/A   Mostly Cloudy
10:35 PM 77.4 °F - 64.8 °F 65% 29.92 in 10.0 mi South 4.6 mph - N/A   Overcast
10:55 PM 78.1 °F - 64.4 °F 63% 29.92 in 10.0 mi South 5.8 mph - N/A   Overcast
11:15 PM 77.4 °F - 64.2 °F 64% 29.92 in 10.0 mi South 5.8 mph - N/A   Overcast
11:35 PM 77.0 °F - 63.9 °F 64% 29.91 in 10.0 mi South 4.6 mph - N/A   Overcast
11:55 PM 77.0 °F - 63.5 °F 63% 29.91 in 10.0 mi South 3.5 mph - N/A   Mostly Cloudy